Williston, ND

11:22 AM CDT on May 26, 2018 (GMT -0500)
Sloulin International

Weather History for KISN - November, 2012

Change the Weather History Date:

Sunday, November 25, 2012

  Actual Average Record
Temperature  
Mean Temperature 13 °F 22 °F  
Max Temperature 25 °F 32 °F 67 °F (1960)
Min Temperature 0 °F 12 °F -26 °F (1996)
Degree Days  
Heating Degree Days 52 43  
Month to date heating degree days 947 912  
Since 1 July heating degree days 1927 1939  
Cooling Degree Days 0 0  
Month to date cooling degree days 0 0  
Year to date cooling degree days 532 456  
Moisture  
Dew Point 9 °F    
Average Humidity 84    
Maximum Humidity 100    
Minimum Humidity 67    
Precipitation  
Precipitation T in 0.01 in 0.50 in (1896)
Month to date precipitation 1.49 0.56  
Year to date precipitation 12.63 13.66  
Snow  
Snow T in - - ()
Month to date snowfall 16.0  
Snow Depth 1.00 in    
Sea Level Pressure  
Sea Level Pressure 30.23 in    
Wind  
Wind Speed 9 mph (NNW)    
Max Wind Speed 22 mph    
Max Gust Speed 25 mph    
Visibility 10 miles    
Events Snow    
T = Trace of Precipitation, MM = Missing Value Source: NWS Daily Summary

Daily Weather History Graph

Daily Weather History Graph

Search for Another Location

Airport or City:

Astronomy

Nov. 25, 2012 Rise Set
Actual Time 8:16 AM CST 5:06 PM CST
Civil Twilight 7:41 AM CST 5:41 PM CST
Nautical Twilight 7:02 AM CST 6:20 PM CST
Astronomical Twilight 6:25 AM CST 6:57 PM CST
Moon 3:32 PM CST (11/25) 5:24 AM CST (11/25)
Length of Visible Light 9h 59m
Length of Day
8h 49m
Waxing Gibbous, 93% of the Moon is Illuminated
Nov 25
Waxing Gibbous
Nov 28
Full
Dec 6
Last Quarter
Dec 13
New
Dec 19
First Quarter

Hourly Weather History & Observations

Time (CST) Temp. Windchill Dew Point Humidity Pressure Visibility Wind Dir Wind Speed Gust Speed Precip Events Conditions
12:52 AM 19.0 °F 12.3 °F 18.0 °F 96% 30.06 in 10.0 mi WSW 4.6 mph - N/A   Clear
1:52 AM 19.9 °F 12.1 °F 19.0 °F 96% 30.05 in 10.0 mi South 5.8 mph - N/A   Clear
2:52 AM 19.9 °F 13.4 °F 19.0 °F 96% 30.07 in 10.0 mi SSW 4.6 mph - N/A   Clear
3:52 AM 21.0 °F 11.4 °F 19.0 °F 92% 30.05 in 10.0 mi West 8.1 mph - N/A   Mostly Cloudy
4:52 AM 21.0 °F - 19.0 °F 92% 30.07 in 10.0 mi Calm Calm - N/A   Clear
5:08 AM 19.4 °F - 19.4 °F 100% 29.98 in 10.0 mi Calm Calm - N/A   Mostly Cloudy
5:36 AM 21.2 °F 16.4 °F 19.4 °F 93% 29.98 in 10.0 mi SSW 3.5 mph - N/A   Overcast
5:52 AM 21.9 °F - 19.9 °F 92% 30.08 in 10.0 mi Calm Calm - N/A   Overcast
6:52 AM 25.0 °F 12.2 °F 21.0 °F 85% 30.11 in 10.0 mi NNW 16.1 mph - N/A   Overcast
7:52 AM 21.0 °F 5.4 °F 16.0 °F 81% 30.13 in 10.0 mi North 20.7 mph - N/A   Overcast
8:52 AM 18.0 °F 4.2 °F 12.9 °F 81% 30.18 in 10.0 mi North 13.8 mph - N/A   Overcast
9:52 AM 15.1 °F 0.5 °F 9.0 °F 77% 30.21 in 10.0 mi North 13.8 mph - 0.00 in   Overcast
10:52 AM 15.1 °F -0.1 °F 10.0 °F 80% 30.23 in 6.0 mi North 15.0 mph - 0.00 in Snow Light Snow
11:52 AM 14.0 °F -2.0 °F 8.1 °F 77% 30.24 in 10.0 mi North 16.1 mph - 0.00 in   Overcast
12:16 PM 14.0 °F -2.0 °F 6.8 °F 73% 30.13 in 10.0 mi North 16.1 mph - 0.00 in   Scattered Clouds
12:52 PM 12.9 °F -2.2 °F 5.0 °F 71% 30.26 in 10.0 mi North 13.8 mph - 0.00 in   Clear
1:52 PM 12.9 °F -1.6 °F 3.9 °F 67% 30.25 in 10.0 mi North 12.7 mph - N/A   Clear
2:52 PM 12.9 °F -2.2 °F 3.9 °F 67% 30.27 in 10.0 mi North 13.8 mph - N/A   Clear
3:52 PM 10.0 °F -3.7 °F 3.0 °F 73% 30.30 in 10.0 mi North 10.4 mph - N/A   Clear
4:52 PM 9.0 °F -3.2 °F 3.0 °F 77% 30.32 in 10.0 mi North 8.1 mph - N/A   Clear
5:52 PM 7.0 °F -3.3 °F 1.9 °F 80% 30.34 in 10.0 mi North 5.8 mph - N/A   Clear
6:52 PM 6.1 °F -4.3 °F 1.0 °F 80% 30.37 in 10.0 mi NNW 5.8 mph - N/A   Clear
7:52 PM 5.0 °F -5.6 °F -0.0 °F 80% 30.39 in 10.0 mi NNW 5.8 mph - N/A   Clear
8:52 PM 3.9 °F -5.3 °F -0.9 °F 80% 30.43 in 10.0 mi North 4.6 mph - N/A   Clear
9:52 PM 3.0 °F -8.0 °F -2.0 °F 80% 30.44 in 10.0 mi NNW 5.8 mph - N/A   Clear
10:52 PM 3.0 °F - -2.0 °F 80% 30.45 in 10.0 mi Calm Calm - N/A   Clear
11:52 PM -0.0 °F - -2.9 °F 88% 30.47 in 10.0 mi Calm Calm - N/A   Clear